This is the latest recevied weather packets stored in our database for station/object HB9GPU-10. If no packets are shown the sender has not sent any weather packets the latest 10 day(s).
| Time | Temp. | Humidity | Pressure | Rain* | Wind** | Luminosity | Snow |
|---|---|---|---|---|---|---|---|
| 1788554963 | 26.11° C | 32% | 1022.7 hPa | - | - | - | - |
| 1788554063 | 26.11° C | 31% | 1022.7 hPa | - | - | - | - |
| 1788553163 | 26.11° C | 32% | 1022.6 hPa | - | - | - | - |
| 1788552262 | 26.67° C | 31% | 1022.4 hPa | - | - | - | - |
| 1788551362 | 26.67° C | 30% | 1022.1 hPa | - | - | - | - |
| 1788550462 | 26.67° C | 31% | 1022 hPa | - | - | - | - |
| 1788549562 | 26.11° C | 32% | 1022 hPa | - | - | - | - |
| 1788548662 | 26.67° C | 31% | 1021.8 hPa | - | - | - | - |
| 1788547762 | 26.67° C | 30% | 1021.7 hPa | - | - | - | - |
| 1788546861 | 26.67° C | 31% | 1021.3 hPa | - | - | - | - |
| 1788545961 | 27.22° C | 30% | 1021 hPa | - | - | - | - |
| 1788545061 | 27.22° C | 30% | 1020.7 hPa | - | - | - | - |
| 1788544161 | 27.22° C | 30% | 1020.5 hPa | - | - | - | - |
| 1788543261 | 27.22° C | 31% | 1020.5 hPa | - | - | - | - |
| 1788542360 | 27.22° C | 31% | 1020.6 hPa | - | - | - | - |
| 1788541460 | 27.78° C | 31% | 1020.5 hPa | - | - | - | - |
| 1788540560 | 27.78° C | 32% | 1020.5 hPa | - | - | - | - |
| 1788539660 | 28.33° C | 30% | 1020.6 hPa | - | - | - | - |
| 1788538760 | 28.89° C | 28% | 1020.6 hPa | - | - | - | - |
| 1788537860 | 28.89° C | 28% | 1020.5 hPa | - | - | - | - |
| 1788536959 | 29.44° C | 29% | 1020.6 hPa | - | - | - | - |
| 1788536059 | 30° C | 25% | 1020.7 hPa | - | - | - | - |
| 1788535159 | 29.44° C | 26% | 1020.9 hPa | - | - | - | - |
| 1788534259 | 29.44° C | 25% | 1021 hPa | - | - | - | - |
| 1788533359 | 30° C | 23% | 1021 hPa | - | - | - | - |
* Rain since midnight (hover to see other rain measurements)
** Current wind speed in m/s (hover to see current wind gust speed)